| time (UTC) | temp F | wind direction | speed MPH | gust MPH | rain 1hr in | rain 24hr in | rain mn in | humidity % | barometer mb |
| 20260905064827 | 80 | 308 | 1.0 | 6.0 | 0.00 | 0.00 | 0.00 | 58 | 1015.8 |
| 20260905064555 | 80 | 144 | 3.0 | 7.0 | 0.00 | 0.00 | 0.00 | 58 | 1015.8 |
| 20260905064048 | 80 | 212 | 4.0 | 10.0 | 0.00 | 0.00 | 0.00 | 57 | 1015.7 |
| 20260905063546 | 81 | 136 | 4.0 | 10.0 | 0.00 | 0.00 | 0.00 | 57 | 1015.5 |
| 20260905062825 | 81 | 211 | 3.0 | 7.0 | 0.00 | 0.00 | 0.00 | 56 | 1015.7 |
| 20260905062322 | 81 | 128 | 3.0 | 7.0 | 0.00 | 0.00 | 0.00 | 56 | 1015.5 |
| 20260905061822 | 82 | 153 | 3.0 | 7.0 | 0.00 | 0.00 | 0.00 | 55 | 1015.5 |
| 20260905061326 | 82 | 234 | 3.0 | 7.0 | 0.00 | 0.00 | 0.00 | 54 | 1015.7 |
| 20260905060820 | 82 | 189 | 3.0 | 7.0 | 0.00 | 0.00 | 0.00 | 54 | 1015.5 |
| 20260905060324 | 82 | 146 | 3.0 | 7.0 | 0.00 | 0.00 | 0.00 | 55 | 1015.7 |
| 20260905055824 | 82 | 160 | 3.0 | 6.0 | 0.00 | 0.00 | 0.00 | 54 | 1015.5 |
| 20260905055313 | 83 | 158 | 2.0 | 6.0 | 0.00 | 0.00 | 0.00 | 54 | 1015.7 |
| 20260905054809 | 83 | 200 | 2.0 | 6.0 | 0.00 | 0.00 | 0.00 | 53 | 1015.7 |
| 20260905054307 | 83 | 93 | 2.0 | 6.0 | 0.00 | 0.00 | 0.00 | 54 | 1015.7 |
| 20260905053806 | 83 | 165 | 2.0 | 7.0 | 0.00 | 0.00 | 0.00 | 53 | 1015.5 |
| 20260905053308 | 83 | 206 | 2.0 | 7.0 | 0.00 | 0.00 | 0.00 | 53 | 1015.5 |
| 20260905052807 | 83 | 205 | 2.0 | 7.0 | 0.00 | 0.00 | 0.00 | 53 | 1015.4 |
| 20260905052306 | 83 | 176 | 3.0 | 7.0 | 0.00 | 0.00 | 0.00 | 52 | 1015.4 |
| 20260905051805 | 84 | 121 | 2.0 | 5.0 | 0.00 | 0.00 | 0.00 | 52 | 1015.3 |
| 20260905051303 | 84 | 210 | 1.0 | 5.0 | 0.00 | 0.00 | 0.00 | 52 | 1015.4 |
| 20260905050803 | 84 | 203 | 1.0 | 4.0 | 0.00 | 0.00 | 0.00 | 51 | 1015.3 |
| 20260905050301 | 84 | 165 | 1.0 | 6.0 | 0.00 | 0.00 | 0.00 | 51 | 1015.3 |
| 20260905050029 | 84 | 217 | 1.0 | 6.0 | 0.00 | 0.00 | 0.00 | 51 | 1015.3 |
| 20260905045305 | 84 | 162 | 1.0 | 4.0 | 0.00 | 0.00 | 0.00 | 50 | 1015.3 |
| 20260905045021 | 85 | 134 | 1.0 | 4.0 | 0.00 | 0.00 | 0.00 | 50 | 1015.3 |
| 20260905044301 | 85 | 187 | 1.0 | 4.0 | 0.00 | 0.00 | 0.00 | 50 | 1015.2 |
| 20260905043755 | 85 | 155 | 1.0 | 4.0 | 0.00 | 0.00 | 0.00 | 49 | 1015.2 |
| 20260905043515 | 85 | 221 | 1.0 | 4.0 | 0.00 | 0.00 | 0.00 | 49 | 1015.2 |
| 20260905042757 | 85 | 168 | 2.0 | 4.0 | 0.00 | 0.00 | 0.00 | 49 | 1015.2 |
| 20260905042255 | 85 | 169 | 2.0 | 4.0 | 0.00 | 0.00 | 0.00 | 49 | 1015.2 |
| 20260905041757 | 85 | 129 | 2.0 | 4.0 | 0.00 | 0.00 | 0.00 | 48 | 1015.2 |
| 20260905041256 | 86 | 131 | 2.0 | 5.0 | 0.00 | 0.00 | 0.00 | 48 | 1015.2 |
| 20260905040756 | 86 | 160 | 2.0 | 5.0 | 0.00 | 0.00 | 0.00 | 47 | 1015.2 |
| 20260905040257 | 86 | 140 | 1.0 | 3.0 | 0.00 | 0.00 | 0.00 | 45 | 1015.2 |
| 20260905035754 | 87 | 128 | 0.0 | 2.0 | 0.00 | 0.00 | 0.00 | 44 | 1015.1 |
| 20260905035252 | 87 | 127 | 1.0 | 4.0 | 0.00 | 0.00 | 0.00 | 43 | 1015.1 |
| 20260905034752 | 87 | 200 | 1.0 | 4.0 | 0.00 | 0.00 | 0.00 | 43 | 1015.1 |
| 20260905034252 | 87 | 144 | 2.0 | 4.0 | 0.00 | 0.00 | 0.00 | 42 | 1015.0 |
| 20260905033754 | 87 | 217 | 1.0 | 4.0 | 0.00 | 0.00 | 0.00 | 41 | 1015.0 |
| 20260905033253 | 88 | 216 | 1.0 | 4.0 | 0.00 | 0.00 | 0.00 | 39 | 1014.9 |
| 20260905032752 | 88 | 235 | 1.0 | 4.0 | 0.00 | 0.00 | 0.00 | 38 | 1014.8 |
| 20260905032521 | 88 | 238 | 1.0 | 4.0 | 0.00 | 0.00 | 0.00 | 37 | 1014.7 |
| 20260905031754 | 88 | 252 | 0.0 | 2.0 | 0.00 | 0.00 | 0.00 | 36 | 1014.6 |
| 20260905031252 | 88 | 241 | 0.0 | 2.0 | 0.00 | 0.00 | 0.00 | 34 | 1014.6 |
| 20260905030751 | 89 | 252 | 1.0 | 2.0 | 0.00 | 0.00 | 0.00 | 34 | 1014.5 |
| 20260905030251 | 89 | 257 | 0.0 | 2.0 | 0.00 | 0.00 | 0.00 | 34 | 1014.4 |
| 20260905025751 | 89 | 249 | 0.0 | 2.0 | 0.00 | 0.00 | 0.00 | 34 | 1014.4 |
| 20260905025252 | 89 | 241 | 0.0 | 1.0 | 0.00 | 0.00 | 0.00 | 34 | 1014.2 |
| 20260905024752 | 89 | 241 | 0.0 | 2.0 | 0.00 | 0.00 | 0.00 | 34 | 1014.2 |
| 20260905024253 | 89 | 242 | 0.0 | 2.0 | 0.00 | 0.00 | 0.00 | 33 | 1014.1 |
| 20260905023748 | 89 | 243 | 0.0 | 1.0 | 0.00 | 0.00 | 0.00 | 33 | 1014.0 |
| 20260905023249 | 89 | 252 | 0.0 | 0.0 | 0.00 | 0.00 | 0.00 | 33 | 1013.9 |
| 20260905022745 | 89 | 253 | 0.0 | 1.0 | 0.00 | 0.00 | 0.00 | 32 | 1013.8 |
| 20260905022247 | 90 | 252 | 0.0 | 2.0 | 0.00 | 0.00 | 0.00 | 32 | 1013.8 |
| 20260905021746 | 90 | 252 | 1.0 | 3.0 | 0.00 | 0.00 | 0.00 | 31 | 1013.7 |
| 20260905021246 | 90 | 255 | 1.0 | 3.0 | 0.00 | 0.00 | 0.00 | 32 | 1013.8 |
| 20260905020747 | 90 | 274 | 0.0 | 3.0 | 0.00 | 0.00 | 0.00 | 31 | 1013.8 |
| 20260905020246 | 90 | 278 | 1.0 | 3.0 | 0.00 | 0.00 | 0.00 | 31 | 1013.6 |
| 20260905015745 | 91 | 321 | 1.0 | 5.0 | 0.00 | 0.00 | 0.00 | 30 | 1013.6 |
| 20260905015245 | 91 | 250 | 2.0 | 5.0 | 0.00 | 0.00 | 0.00 | 30 | 1013.5 |
| 20260905014748 | 91 | 270 | 2.0 | 5.0 | 0.00 | 0.00 | 0.00 | 30 | 1013.5 |
| 20260905014249 | 91 | 276 | 1.0 | 5.0 | 0.00 | 0.00 | 0.00 | 30 | 1013.5 |
| 20260905014002 | 92 | 277 | 1.0 | 4.0 | 0.00 | 0.00 | 0.00 | 30 | 1013.5 |
| 20260905013232 | 92 | 277 | 1.0 | 5.0 | 0.00 | 0.00 | 0.00 | 30 | 1013.5 |
| 20260905012727 | 92 | 267 | 2.0 | 6.0 | 0.00 | 0.00 | 0.00 | 30 | 1013.5 |
| 20260905012221 | 92 | 285 | 2.0 | 6.0 | 0.00 | 0.00 | 0.00 | 30 | 1013.4 |
| 20260905011710 | 93 | 297 | 3.0 | 8.0 | 0.00 | 0.00 | 0.00 | 30 | 1013.4 |
| 20260905011425 | 93 | 231 | 3.0 | 8.0 | 0.00 | 0.00 | 0.00 | 30 | 1013.4 |
| 20260905010658 | 93 | 354 | 2.0 | 5.0 | 0.00 | 0.00 | 0.00 | 30 | 1013.3 |
| 20260905010145 | 94 | 270 | 2.0 | 5.0 | 0.00 | 0.00 | 0.00 | 30 | 1013.3 |
| 20260905005641 | 94 | 266 | 2.0 | 5.0 | 0.00 | 0.00 | 0.00 | 30 | 1013.4 |
| 20260905005134 | 94 | 323 | 2.0 | 6.0 | 0.00 | 0.00 | 0.00 | 30 | 1013.3 |
| 20260905004625 | 94 | 275 | 3.0 | 8.0 | 0.00 | 0.00 | 0.00 | 30 | 1013.3 |
| 20260905004118 | 94 | 282 | 3.0 | 8.0 | 0.00 | 0.00 | 0.00 | 30 | 1013.3 |
| 20260905003613 | 94 | 333 | 3.0 | 8.0 | 0.00 | 0.00 | 0.00 | 30 | 1013.4 |
| 20260905003102 | 95 | 307 | 2.0 | 6.0 | 0.00 | 0.00 | 0.00 | 31 | 1013.3 |
| 20260905002557 | 95 | 260 | 3.0 | 7.0 | 0.00 | 0.00 | 0.00 | 31 | 1013.3 |
| 20260905002050 | 95 | 314 | 3.0 | 7.0 | 0.00 | 0.00 | 0.00 | 31 | 1013.2 |
| 20260905001539 | 95 | 314 | 3.0 | 9.0 | 0.00 | 0.00 | 0.00 | 31 | 1013.1 |
| 20260905001033 | 95 | 296 | 3.0 | 9.0 | 0.00 | 0.00 | 0.00 | 30 | 1012.9 |
| 20260905000527 | 95 | 318 | 3.0 | 9.0 | 0.00 | 0.00 | 0.00 | 30 | 1012.9 |
| 20260905000015 | 95 | 244 | 3.0 | 9.0 | 0.00 | 0.00 | 0.00 | 30 | 1012.9 |
| 20260904235511 | 95 | 273 | 4.0 | 11.0 | 0.00 | 0.00 | 0.00 | 30 | 1012.9 |
| 20260904235004 | 95 | 269 | 4.0 | 11.0 | 0.00 | 0.00 | 0.00 | 29 | 1012.9 |
| 20260904234455 | 96 | 304 | 2.0 | 9.0 | 0.00 | 0.00 | 0.00 | 29 | 1012.9 |
| 20260904234207 | 95 | 300 | 3.0 | 9.0 | 0.00 | 0.00 | 0.00 | 29 | 1012.9 |
| 20260904233443 | 95 | 264 | 4.0 | 10.0 | 0.00 | 0.00 | 0.00 | 29 | 1013.1 |
| 20260904232932 | 96 | 233 | 4.0 | 10.0 | 0.00 | 0.00 | 0.00 | 29 | 1013.1 |
| 20260904232704 | 96 | 289 | 4.0 | 9.0 | 0.00 | 0.00 | 0.00 | 29 | 1013.1 |
| 20260904232146 | 96 | 3 | 3.0 | 10.0 | 0.00 | 0.00 | 0.00 | 28 | 1013.1 |
| 20260904231637 | 96 | 319 | 4.0 | 10.0 | 0.00 | 0.00 | 0.00 | 28 | 1013.2 |
| 20260904231352 | 96 | 240 | 4.0 | 9.0 | 0.00 | 0.00 | 0.00 | 28 | 1013.2 |
| 20260904230359 | 95 | 272 | 4.0 | 9.0 | 0.00 | 0.00 | 0.00 | 29 | 1013.2 |
| 20260904230108 | 95 | 316 | 4.0 | 12.0 | 0.00 | 0.00 | 0.00 | 30 | 1013.2 |
| 20260904225342 | 95 | 250 | 5.0 | 12.0 | 0.00 | 0.00 | 0.00 | 30 | 1013.2 |
| 20260904224837 | 95 | 260 | 5.0 | 12.0 | 0.00 | 0.00 | 0.00 | 30 | 1013.3 |
| 20260904224327 | 96 | 281 | 4.0 | 10.0 | 0.00 | 0.00 | 0.00 | 29 | 1013.3 |
| 20260904224308 | 96 | 281 | 4.0 | 10.0 | 0.00 | 0.00 | 0.00 | 30 | 1013.3 |
| 20260904223314 | 96 | 282 | 4.0 | 9.0 | 0.00 | 0.00 | 0.00 | 32 | 1013.3 |
| 20260904222805 | 96 | 244 | 4.0 | 9.0 | 0.00 | 0.00 | 0.00 | 31 | 1013.3 |
| 20260904222258 | 96 | 193 | 4.0 | 10.0 | 0.00 | 0.00 | 0.00 | 31 | 1013.4 |
| 20260904221753 | 96 | 281 | 4.0 | 10.0 | 0.00 | 0.00 | 0.00 | 31 | 1013.4 |
| 20260904221243 | 96 | 248 | 3.0 | 10.0 | 0.00 | 0.00 | 0.00 | 32 | 1013.4 |
| 20260904220737 | 95 | 264 | 3.0 | 8.0 | 0.00 | 0.00 | 0.00 | 32 | 1013.5 |
| 20260904220231 | 95 | 211 | 4.0 | 10.0 | 0.00 | 0.00 | 0.00 | 32 | 1013.6 |
| 20260904215721 | 96 | 250 | 3.0 | 10.0 | 0.00 | 0.00 | 0.00 | 32 | 1013.6 |
| 20260904215215 | 96 | 253 | 3.0 | 8.0 | 0.00 | 0.00 | 0.00 | 31 | 1013.7 |
| 20260904214709 | 96 | 267 | 3.0 | 8.0 | 0.00 | 0.00 | 0.00 | 31 | 1013.7 |
| 20260904214159 | 96 | 295 | 3.0 | 9.0 | 0.00 | 0.00 | 0.00 | 30 | 1013.8 |
| 20260904213653 | 96 | 250 | 5.0 | 9.0 | 0.00 | 0.00 | 0.00 | 32 | 1013.9 |
| 20260904213147 | 96 | 264 | 3.0 | 9.0 | 0.00 | 0.00 | 0.00 | 31 | 1013.9 |
| 20260904212636 | 96 | 321 | 2.0 | 9.0 | 0.00 | 0.00 | 0.00 | 31 | 1013.9 |
| 20260904212130 | 96 | 330 | 2.0 | 6.0 | 0.00 | 0.00 | 0.00 | 31 | 1014.0 |
| 20260904211625 | 96 | 238 | 3.0 | 7.0 | 0.00 | 0.00 | 0.00 | 32 | 1014.1 |
| 20260904211113 | 96 | 259 | 4.0 | 8.0 | 0.00 | 0.00 | 0.00 | 31 | 1014.2 |
| 20260904210609 | 96 | 229 | 4.0 | 8.0 | 0.00 | 0.00 | 0.00 | 30 | 1014.2 |
| 20260904210327 | 96 | 220 | 3.0 | 8.0 | 0.00 | 0.00 | 0.00 | 29 | 1014.2 |
| 20260904205550 | 96 | 259 | 2.0 | 6.0 | 0.00 | 0.00 | 0.00 | 29 | 1014.4 |
| 20260904205045 | 95 | 285 | 3.0 | 7.0 | 0.00 | 0.00 | 0.00 | 30 | 1014.4 |
| 20260904205020 | 95 | 289 | 4.0 | 8.0 | 0.00 | 0.00 | 0.00 | 30 | 1014.5 |
| 20260904204029 | 95 | 238 | 4.0 | 9.0 | 0.00 | 0.00 | 0.00 | 31 | 1014.5 |
| 20260904203521 | 96 | 223 | 3.0 | 9.0 | 0.00 | 0.00 | 0.00 | 31 | 1014.6 |
| 20260904203016 | 96 | 189 | 2.0 | 8.0 | 0.00 | 0.00 | 0.00 | 32 | 1014.7 |
| 20260904202505 | 95 | 255 | 3.0 | 7.0 | 0.00 | 0.00 | 0.00 | 33 | 1014.8 |
| 20260904202220 | 95 | 110 | 4.0 | 10.0 | 0.00 | 0.00 | 0.00 | 35 | 1014.9 |
| 20260904201719 | 95 | 260 | 4.0 | 10.0 | 0.00 | 0.00 | 0.00 | 35 | 1014.9 |
| 20260904201431 | 94 | 219 | 4.0 | 10.0 | 0.00 | 0.00 | 0.00 | 36 | 1015.0 |
| 20260904200443 | 94 | 245 | 3.0 | 8.0 | 0.00 | 0.00 | 0.00 | 34 | 1015.1 |
| 20260904195940 | 94 | 288 | 2.0 | 7.0 | 0.00 | 0.00 | 0.00 | 34 | 1015.2 |
| 20260904195442 | 94 | 258 | 3.0 | 9.0 | 0.00 | 0.00 | 0.00 | 36 | 1015.3 |
| 20260904194939 | 94 | 272 | 3.0 | 9.0 | 0.00 | 0.00 | 0.00 | 35 | 1015.4 |
| 20260904194439 | 95 | 282 | 1.0 | 6.0 | 0.00 | 0.00 | 0.00 | 35 | 1015.3 |
| 20260904193939 | 95 | 277 | 1.0 | 6.0 | 0.00 | 0.00 | 0.00 | 36 | 1015.3 |
| 20260904193438 | 94 | 134 | 2.0 | 6.0 | 0.00 | 0.00 | 0.00 | 37 | 1015.5 |
| 20260904193200 | 94 | 338 | 2.0 | 6.0 | 0.00 | 0.00 | 0.00 | 37 | 1015.5 |
| 20260904192658 | 93 | 241 | 3.0 | 7.0 | 0.00 | 0.00 | 0.00 | 39 | 1015.7 |
| 20260904191935 | 93 | 274 | 3.0 | 8.0 | 0.00 | 0.00 | 0.00 | 38 | 1015.9 |
| 20260904191436 | 92 | 23 | 2.0 | 8.0 | 0.00 | 0.00 | 0.00 | 37 | 1015.9 |
| 20260904190935 | 93 | 289 | 2.0 | 5.0 | 0.00 | 0.00 | 0.00 | 36 | 1015.9 |
| 20260904190658 | 93 | 263 | 2.0 | 5.0 | 0.00 | 0.00 | 0.00 | 37 | 1016.0 |
| 20260904185933 | 94 | 219 | 2.0 | 6.0 | 0.00 | 0.00 | 0.00 | 38 | 1016.1 |
| 20260904185434 | 93 | 217 | 3.0 | 10.0 | 0.00 | 0.00 | 0.00 | 40 | 1016.1 |
| 20260904184928 | 93 | 203 | 2.0 | 10.0 | 0.00 | 0.00 | 0.00 | 40 | 1016.2 |
| 20260904184422 | 94 | 276 | 2.0 | 5.0 | 0.00 | 0.00 | 0.00 | 37 | 1016.2 |
| 20260904183913 | 93 | 292 | 2.0 | 5.0 | 0.00 | 0.00 | 0.00 | 37 | 1016.2 |
| 20260904183632 | 93 | 271 | 2.0 | 8.0 | 0.00 | 0.00 | 0.00 | 40 | 1016.3 |
| 20260904183130 | 93 | 221 | 2.0 | 8.0 | 0.00 | 0.00 | 0.00 | 41 | 1016.3 |
| 20260904182350 | 93 | 208 | 2.0 | 7.0 | 0.00 | 0.00 | 0.00 | 42 | 1016.4 |
| 20260904181844 | 93 | 110 | 2.0 | 7.0 | 0.00 | 0.00 | 0.00 | 42 | 1016.5 |
| 20260904181338 | 93 | 103 | 0.0 | 3.0 | 0.00 | 0.00 | 0.00 | 41 | 1016.6 |
| 20260904180827 | 92 | 221 | 1.0 | 3.0 | 0.00 | 0.00 | 0.00 | 43 | 1016.7 |
| 20260904180322 | 91 | 25 | 1.0 | 4.0 | 0.00 | 0.00 | 0.00 | 43 | 1016.7 |
| 20260904180034 | 90 | 252 | 2.0 | 7.0 | 0.00 | 0.00 | 0.00 | 46 | 1016.8 |
| 20260904175306 | 89 | 229 | 2.0 | 8.0 | 0.00 | 0.00 | 0.00 | 46 | 1016.8 |
| 20260904174803 | 89 | 245 | 1.0 | 6.0 | 0.00 | 0.00 | 0.00 | 47 | 1016.8 |
| 20260904174304 | 89 | 283 | 2.0 | 9.0 | 0.00 | 0.00 | 0.00 | 47 | 1016.8 |
| 20260904173803 | 89 | 243 | 3.0 | 9.0 | 0.00 | 0.00 | 0.00 | 48 | 1017.1 |
| 20260904173525 | 89 | 268 | 2.0 | 8.0 | 0.00 | 0.00 | 0.00 | 48 | 1017.0 |
| 20260904172802 | 89 | 259 | 2.0 | 5.0 | 0.00 | 0.00 | 0.00 | 48 | 1017.1 |
| 20260904172305 | 89 | 62 | 2.0 | 6.0 | 0.00 | 0.00 | 0.00 | 49 | 1017.1 |
| 20260904171803 | 88 | 75 | 1.0 | 6.0 | 0.00 | 0.00 | 0.00 | 49 | 1017.2 |
| 20260904171302 | 88 | 148 | 2.0 | 7.0 | 0.00 | 0.00 | 0.00 | 50 | 1017.2 |
| 20260904170803 | 87 | 90 | 2.0 | 7.0 | 0.00 | 0.00 | 0.00 | 51 | 1017.3 |
| 20260904170301 | 88 | 323 | 1.0 | 4.0 | 0.00 | 0.00 | 0.00 | 50 | 1017.3 |
| 20260904165802 | 88 | 260 | 2.0 | 4.0 | 0.00 | 0.00 | 0.00 | 50 | 1017.3 |
| 20260904165531 | 88 | 229 | 1.0 | 4.0 | 0.00 | 0.00 | 0.00 | 50 | 1017.2 |
| 20260904164805 | 88 | 236 | 1.0 | 4.0 | 0.00 | 0.00 | 0.00 | 50 | 1017.2 |
| 20260904164307 | 89 | 274 | 1.0 | 3.0 | 0.00 | 0.00 | 0.00 | 48 | 1017.2 |
| 20260904163803 | 89 | 219 | 0.0 | 1.0 | 0.00 | 0.00 | 0.00 | 48 | 1017.1 |
| 20260904163304 | 89 | 35 | 0.0 | 3.0 | 0.00 | 0.00 | 0.00 | 49 | 1017.1 |
| 20260904162804 | 88 | 237 | 1.0 | 4.0 | 0.00 | 0.00 | 0.00 | 50 | 1017.2 |
| 20260904162300 | 87 | 121 | 2.0 | 4.0 | 0.00 | 0.00 | 0.00 | 52 | 1017.1 |
| 20260904161801 | 86 | 242 | 2.0 | 4.0 | 0.00 | 0.00 | 0.00 | 53 | 1017.2 |
| 20260904161303 | 86 | 354 | 2.0 | 5.0 | 0.00 | 0.00 | 0.00 | 54 | 1017.1 |
| 20260904160757 | 85 | 275 | 2.0 | 5.0 | 0.00 | 0.00 | 0.00 | 55 | 1017.1 |
| 20260904160257 | 85 | 227 | 1.0 | 4.0 | 0.00 | 0.00 | 0.00 | 54 | 1017.1 |
| 20260904155758 | 85 | 217 | 1.0 | 4.0 | 0.00 | 0.00 | 0.00 | 55 | 1017.1 |
| 20260904155513 | 84 | 259 | 1.0 | 5.0 | 0.00 | 0.00 | 0.00 | 57 | 1017.1 |
| 20260904154758 | 84 | 211 | 2.0 | 5.0 | 0.00 | 0.00 | 0.00 | 57 | 1017.1 |
| 20260904154258 | 84 | 258 | 2.0 | 5.0 | 0.00 | 0.00 | 0.00 | 57 | 1017.1 |
| 20260904153757 | 84 | 233 | 2.0 | 6.0 | 0.00 | 0.00 | 0.00 | 57 | 1017.1 |
| 20260904153258 | 83 | 223 | 3.0 | 6.0 | 0.00 | 0.00 | 0.00 | 57 | 1017.1 |
| 20260904152758 | 83 | 281 | 2.0 | 5.0 | 0.00 | 0.00 | 0.00 | 58 | 1017.1 |
| 20260904152521 | 83 | 238 | 2.0 | 5.0 | 0.00 | 0.00 | 0.00 | 59 | 1017.1 |
| 20260904151758 | 82 | 274 | 3.0 | 6.0 | 0.00 | 0.00 | 0.00 | 60 | 1017.1 |
| 20260904151258 | 82 | 219 | 3.0 | 6.0 | 0.00 | 0.00 | 0.00 | 61 | 1017.1 |
| 20260904150756 | 82 | 262 | 3.0 | 5.0 | 0.00 | 0.00 | 0.00 | 61 | 1017.1 |
| 20260904150258 | 82 | 219 | 2.0 | 5.0 | 0.00 | 0.00 | 0.00 | 61 | 1017.0 |
| 20260904145759 | 82 | 240 | 2.0 | 8.0 | 0.00 | 0.00 | 0.00 | 61 | 1017.0 |
| 20260904145516 | 82 | 236 | 1.0 | 8.0 | 0.00 | 0.00 | 0.00 | 61 | 1017.0 |
| 20260904144749 | 81 | 233 | 1.0 | 4.0 | 0.00 | 0.00 | 0.00 | 62 | 1017.0 |
| 20260904144248 | 81 | 253 | 1.0 | 4.0 | 0.00 | 0.00 | 0.00 | 62 | 1017.0 |
| 20260904143746 | 81 | 238 | 1.0 | 4.0 | 0.00 | 0.00 | 0.00 | 62 | 1017.0 |
| 20260904143508 | 81 | 228 | 1.0 | 3.0 | 0.00 | 0.00 | 0.00 | 63 | 1017.0 |
| 20260904142743 | 80 | 231 | 0.0 | 3.0 | 0.00 | 0.00 | 0.00 | 64 | 1017.0 |
| 20260904142243 | 80 | 192 | 0.0 | 2.0 | 0.00 | 0.00 | 0.00 | 65 | 1016.8 |
| 20260904141742 | 79 | 214 | 0.0 | 2.0 | 0.00 | 0.00 | 0.00 | 66 | 1016.7 |
| 20260904141240 | 79 | 219 | 0.0 | 0.0 | 0.00 | 0.00 | 0.00 | 67 | 1016.7 |
| 20260904141002 | 78 | 191 | 1.0 | 2.0 | 0.00 | 0.00 | 0.00 | 67 | 1016.5 |
| 20260904140245 | 78 | 165 | 2.0 | 4.0 | 0.00 | 0.00 | 0.00 | 68 | 1016.5 |
| 20260904135739 | 78 | 162 | 1.0 | 4.0 | 0.00 | 0.00 | 0.00 | 69 | 1016.5 |
| 20260904135240 | 77 | 136 | 1.0 | 4.0 | 0.00 | 0.00 | 0.00 | 70 | 1016.5 |
| 20260904135003 | 77 | 184 | 1.0 | 4.0 | 0.00 | 0.00 | 0.00 | 70 | 1016.4 |
| 20260904134237 | 77 | 145 | 1.0 | 4.0 | 0.00 | 0.00 | 0.00 | 71 | 1016.3 |
| 20260904134224 | 76 | 224 | 0.0 | 4.0 | 0.00 | 0.00 | 0.00 | 71 | 1016.3 |
| 20260904133233 | 76 | 232 | 0.0 | 2.0 | 0.00 | 0.00 | 0.00 | 71 | 1016.2 |
| 20260904132954 | 76 | 225 | 0.0 | 2.0 | 0.00 | 0.00 | 0.00 | 71 | 1016.1 |
| 20260904132221 | 76 | 150 | 0.0 | 1.0 | 0.00 | 0.00 | 0.00 | 72 | 1016.0 |
| 20260904131716 | 76 | 215 | 0.0 | 1.0 | 0.00 | 0.00 | 0.00 | 72 | 1016.0 |
| 20260904131216 | 76 | 225 | 0.0 | 3.0 | 0.00 | 0.00 | 0.00 | 72 | 1015.9 |
| 20260904130717 | 76 | 207 | 0.0 | 3.0 | 0.00 | 0.00 | 0.00 | 72 | 1015.8 |
| 20260904130220 | 76 | 155 | 1.0 | 2.0 | 0.00 | 0.00 | 0.00 | 72 | 1015.7 |
| 20260904125718 | 76 | 238 | 1.0 | 3.0 | 0.00 | 0.00 | 0.00 | 72 | 1015.5 |
| 20260904125214 | 76 | 142 | 1.0 | 3.0 | 0.00 | 0.00 | 0.00 | 72 | 1015.5 |
| 20260904124712 | 76 | 162 | 1.0 | 3.0 | 0.00 | 0.00 | 0.00 | 72 | 1015.5 |
| 20260904124211 | 76 | 229 | 0.0 | 2.0 | 0.00 | 0.00 | 0.00 | 72 | 1015.4 |
| 20260904123711 | 76 | 149 | 0.0 | 0.0 | 0.00 | 0.00 | 0.00 | 73 | 1015.4 |
| 20260904123210 | 76 | 131 | 0.0 | 2.0 | 0.00 | 0.00 | 0.00 | 72 | 1015.3 |
| 20260904122708 | 76 | 143 | 0.0 | 2.0 | 0.00 | 0.00 | 0.00 | 73 | 1015.2 |
| 20260904122208 | 76 | 143 | 0.0 | 2.0 | 0.00 | 0.00 | 0.00 | 73 | 1015.1 |
| 20260904121712 | 76 | 139 | 0.0 | 0.0 | 0.00 | 0.00 | 0.00 | 73 | 1015.1 |
| 20260904121430 | 76 | 139 | 0.0 | 0.0 | 0.00 | 0.00 | 0.00 | 73 | 1015.1 |
| 20260904120704 | 76 | 181 | 0.0 | 0.0 | 0.00 | 0.00 | 0.00 | 73 | 1015.1 |
| 20260904120203 | 76 | 146 | 0.0 | 0.0 | 0.00 | 0.00 | 0.00 | 74 | 1015.1 |
| 20260904115657 | 76 | 146 | 0.0 | 0.0 | 0.00 | 0.00 | 0.00 | 73 | 1015.1 |
| 20260904115151 | 76 | 146 | 0.0 | 0.0 | 0.00 | 0.00 | 0.00 | 73 | 1015.0 |
| 20260904114907 | 76 | 146 | 0.0 | 0.0 | 0.00 | 0.00 | 0.00 | 73 | 1015.0 |
| 20260904114146 | 76 | 146 | 0.0 | 0.0 | 0.00 | 0.00 | 0.00 | 72 | 1015.0 |
| 20260904113644 | 76 | 146 | 0.0 | 0.0 | 0.00 | 0.00 | 0.00 | 72 | 1015.0 |
| 20260904113146 | 76 | 146 | 0.0 | 0.0 | 0.00 | 0.00 | 0.00 | 72 | 1015.0 |
| 20260904112646 | 76 | 181 | 0.0 | 0.0 | 0.00 | 0.00 | 0.00 | 73 | 1015.0 |
| 20260904112409 | 76 | 158 | 0.0 | 0.0 | 0.00 | 0.00 | 0.00 | 72 | 1015.0 |
| 20260904111644 | 76 | 158 | 0.0 | 0.0 | 0.00 | 0.00 | 0.00 | 72 | 1015.0 |
| 20260904111144 | 76 | 106 | 0.0 | 0.0 | 0.00 | 0.00 | 0.00 | 72 | 1015.0 |
| 20260904110644 | 76 | 106 | 0.0 | 0.0 | 0.00 | 0.00 | 0.00 | 71 | 1015.1 |
| 20260904110144 | 76 | 106 | 0.0 | 0.0 | 0.00 | 0.00 | 0.00 | 71 | 1015.1 |
| 20260904105642 | 76 | 106 | 0.0 | 0.0 | 0.00 | 0.00 | 0.00 | 71 | 1015.1 |
| 20260904105403 | 77 | 106 | 0.0 | 0.0 | 0.00 | 0.00 | 0.00 | 70 | 1014.9 |
| 20260904104639 | 77 | 106 | 0.0 | 0.0 | 0.00 | 0.00 | 0.00 | 70 | 1014.9 |
| 20260904104138 | 77 | 106 | 0.0 | 0.0 | 0.00 | 0.00 | 0.00 | 70 | 1015.0 |
| 20260904103635 | 77 | 106 | 0.0 | 0.0 | 0.00 | 0.00 | 0.00 | 70 | 1015.0 |
| 20260904103136 | 77 | 106 | 0.0 | 0.0 | 0.00 | 0.00 | 0.00 | 70 | 1015.0 |
| 20260904102626 | 77 | 108 | 0.0 | 0.0 | 0.00 | 0.00 | 0.00 | 70 | 1015.0 |
| 20260904102121 | 77 | 108 | 0.0 | 0.0 | 0.00 | 0.00 | 0.00 | 70 | 1015.0 |
| 20260904102109 | 77 | 134 | 0.0 | 0.0 | 0.00 | 0.00 | 0.00 | 70 | 1015.0 |
| 20260904101104 | 77 | 134 | 0.0 | 0.0 | 0.00 | 0.00 | 0.00 | 70 | 1014.9 |
| 20260904100558 | 77 | 134 | 0.0 | 0.0 | 0.00 | 0.00 | 0.00 | 70 | 1014.9 |
| 20260904100316 | 77 | 134 | 0.0 | 0.0 | 0.00 | 0.00 | 0.00 | 70 | 1015.0 |
| 20260904095541 | 77 | 134 | 0.0 | 0.0 | 0.00 | 0.00 | 0.00 | 70 | 1014.9 |
| 20260904095036 | 77 | 134 | 0.0 | 0.0 | 0.00 | 0.00 | 0.00 | 71 | 1014.9 |
| 20260904094530 | 76 | 134 | 0.0 | 0.0 | 0.00 | 0.00 | 0.00 | 71 | 1014.9 |
| 20260904094021 | 77 | 134 | 0.0 | 0.0 | 0.00 | 0.00 | 0.00 | 70 | 1014.9 |
| 20260904093514 | 77 | 134 | 0.0 | 0.0 | 0.00 | 0.00 | 0.00 | 71 | 1014.9 |
| 20260904093008 | 77 | 134 | 0.0 | 0.0 | 0.00 | 0.00 | 0.00 | 71 | 1014.8 |
| 20260904092459 | 76 | 189 | 0.0 | 0.0 | 0.00 | 0.00 | 0.00 | 71 | 1014.9 |
| 20260904091952 | 76 | 189 | 0.0 | 0.0 | 0.00 | 0.00 | 0.00 | 71 | 1014.9 |
| 20260904091443 | 76 | 189 | 0.0 | 0.0 | 0.00 | 0.00 | 0.00 | 71 | 1014.8 |
| 20260904090934 | 76 | 189 | 0.0 | 0.0 | 0.00 | 0.00 | 0.00 | 71 | 1014.9 |
| 20260904090432 | 76 | 189 | 0.0 | 0.0 | 0.00 | 0.00 | 0.00 | 71 | 1014.9 |
| 20260904085932 | 76 | 189 | 0.0 | 0.0 | 0.00 | 0.00 | 0.00 | 71 | 1014.9 |
| 20260904085700 | 77 | 189 | 0.0 | 0.0 | 0.00 | 0.00 | 0.00 | 70 | 1014.9 |
| 20260904084935 | 77 | 189 | 0.0 | 0.0 | 0.00 | 0.00 | 0.00 | 70 | 1014.9 |
| 20260904084430 | 77 | 216 | 0.0 | 0.0 | 0.00 | 0.00 | 0.00 | 70 | 1014.9 |
| 20260904083928 | 77 | 216 | 0.0 | 0.0 | 0.00 | 0.00 | 0.00 | 69 | 1014.9 |
| 20260904083428 | 77 | 216 | 0.0 | 0.0 | 0.00 | 0.00 | 0.00 | 69 | 1014.9 |
| 20260904082925 | 77 | 216 | 0.0 | 0.0 | 0.00 | 0.00 | 0.00 | 69 | 1014.9 |
| 20260904082425 | 77 | 216 | 0.0 | 0.0 | 0.00 | 0.00 | 0.00 | 69 | 1014.9 |
| 20260904081928 | 78 | 216 | 0.0 | 0.0 | 0.00 | 0.00 | 0.00 | 69 | 1015.0 |
| 20260904081424 | 78 | 216 | 0.0 | 0.0 | 0.00 | 0.00 | 0.00 | 68 | 1015.0 |
| 20260904080924 | 78 | 216 | 0.0 | 0.0 | 0.00 | 0.00 | 0.00 | 69 | 1015.1 |
| 20260904080424 | 78 | 221 | 0.0 | 0.0 | 0.00 | 0.00 | 0.00 | 69 | 1015.1 |
| 20260904075924 | 78 | 221 | 0.0 | 0.0 | 0.00 | 0.00 | 0.00 | 68 | 1015.1 |
| 20260904075425 | 78 | 221 | 0.0 | 0.0 | 0.00 | 0.00 | 0.00 | 69 | 1015.2 |
| 20260904074919 | 78 | 237 | 0.0 | 0.0 | 0.00 | 0.00 | 0.00 | 68 | 1015.1 |
| 20260904074413 | 78 | 237 | 0.0 | 0.0 | 0.00 | 0.00 | 0.00 | 67 | 1015.1 |
| 20260904073902 | 78 | 237 | 0.0 | 0.0 | 0.00 | 0.00 | 0.00 | 67 | 1015.1 |
| 20260904073358 | 78 | 237 | 0.0 | 0.0 | 0.00 | 0.00 | 0.00 | 67 | 1015.1 |
| 20260904072852 | 78 | 237 | 0.0 | 0.0 | 0.00 | 0.00 | 0.00 | 67 | 1015.1 |
| 20260904072342 | 78 | 237 | 0.0 | 0.0 | 0.00 | 0.00 | 0.00 | 67 | 1015.1 |
| 20260904071835 | 78 | 237 | 0.0 | 0.0 | 0.00 | 0.00 | 0.00 | 67 | 1015.1 |
| 20260904071329 | 78 | 237 | 0.0 | 0.0 | 0.00 | 0.00 | 0.00 | 66 | 1015.1 |
| 20260904070819 | 78 | 237 | 0.0 | 0.0 | 0.00 | 0.00 | 0.00 | 67 | 1015.1 |
| 20260904070313 | 78 | 237 | 0.0 | 0.0 | 0.00 | 0.00 | 0.00 | 66 | 1015.1 |
| 20260904065808 | 78 | 237 | 0.0 | 0.0 | 0.00 | 0.00 | 0.00 | 66 | 1015.2 |
| 20260904065258 | 79 | 237 | 0.0 | 0.0 | 0.00 | 0.00 | 0.00 | 65 | 1015.2 |